contact:dominique.lefevre@mio.osupytheas.fr, maurice.libes@osupytheas.fr, didier.mallarino@osupytheas.fr
Project:EMSO http://www.emso-fr.org/EMSO-France
Depth: 2436.0 m
Title:EMSO Ligure Ouest : Data MII capteur OXYGEN
DateTime,Latitude,Longitude,Optode-Type,Optode_Serial,Oxygen,Saturation_Oxygen,Temperature
DateTime,Latitude,Longitude,Optode-Type,Optode_Serial,µmol.l-1,%,degC
2019-06-15T00:00:33,42.805,6.029,4330,1995,194.802,59.574,13.289
2019-06-15T00:03:33,42.805,6.029,4330,1995,194.823,59.580,13.288
2019-06-15T00:06:33,42.805,6.029,4330,1995,194.816,59.578,13.289
2019-06-15T00:09:33,42.805,6.029,4330,1995,194.783,59.568,13.288
2019-06-15T00:12:33,42.805,6.029,4330,1995,194.803,59.574,13.289
2019-06-15T00:15:33,42.805,6.029,4330,1995,194.809,59.576,13.289
2019-06-15T00:18:33,42.805,6.029,4330,1995,194.819,59.579,13.289
2019-06-15T00:21:33,42.805,6.029,4330,1995,194.808,59.575,13.288
2019-06-15T00:24:33,42.805,6.029,4330,1995,194.774,59.565,13.289
2019-06-15T00:27:33,42.805,6.029,4330,1995,194.829,59.582,13.288
2019-06-15T00:30:33,42.805,6.029,4330,1995,194.811,59.576,13.288
2019-06-15T00:33:33,42.805,6.029,4330,1995,194.793,59.571,13.288
2019-06-15T00:36:33,42.805,6.029,4330,1995,194.786,59.569,13.288
2019-06-15T00:39:33,42.805,6.029,4330,1995,194.787,59.569,13.288
2019-06-15T00:42:33,42.805,6.029,4330,1995,194.798,59.573,13.288
2019-06-15T00:45:33,42.805,6.029,4330,1995,194.830,59.582,13.289
2019-06-15T00:48:33,42.805,6.029,4330,1995,194.799,59.574,13.290
2019-06-15T00:51:33,42.805,6.029,4330,1995,194.815,59.578,13.289
2019-06-15T00:54:33,42.805,6.029,4330,1995,194.753,59.559,13.289
2019-06-15T00:57:33,42.805,6.029,4330,1995,194.783,59.568,13.288
2019-06-15T01:00:33,42.805,6.029,4330,1995,194.836,59.585,13.289
2019-06-15T01:03:33,42.805,6.029,4330,1995,194.772,59.566,13.289
2019-06-15T01:06:33,42.805,6.029,4330,1995,194.850,59.589,13.289
2019-06-15T01:09:33,42.805,6.029,4330,1995,194.796,59.573,13.289
2019-06-15T01:12:33,42.805,6.029,4330,1995,194.801,59.574,13.289
2019-06-15T01:15:33,42.805,6.029,4330,1995,194.838,59.585,13.289
2019-06-15T01:18:33,42.805,6.029,4330,1995,194.824,59.581,13.289
2019-06-15T01:21:33,42.805,6.029,4330,1995,194.738,59.556,13.290
2019-06-15T01:24:33,42.805,6.029,4330,1995,194.810,59.577,13.289
2019-06-15T01:27:33,42.805,6.029,4330,1995,194.726,59.552,13.290
2019-06-15T01:30:33,42.805,6.029,4330,1995,194.775,59.567,13.289
2019-06-15T01:33:33,42.805,6.029,4330,1995,194.822,59.581,13.289
2019-06-15T01:36:33,42.805,6.029,4330,1995,194.828,59.583,13.290
2019-06-15T01:39:33,42.805,6.029,4330,1995,194.812,59.579,13.290
2019-06-15T01:42:33,42.805,6.029,4330,1995,194.858,59.594,13.291
2019-06-15T01:45:33,42.805,6.029,4330,1995,194.789,59.573,13.291
2019-06-15T01:48:33,42.805,6.029,4330,1995,194.817,59.580,13.290
2019-06-15T01:51:33,42.805,6.029,4330,1995,194.808,59.577,13.290
2019-06-15T01:54:33,42.805,6.029,4330,1995,194.810,59.578,13.290
2019-06-15T01:57:33,42.805,6.029,4330,1995,194.819,59.581,13.290
2019-06-15T02:00:33,42.805,6.029,4330,1995,194.849,59.591,13.290
2019-06-15T02:03:33,42.805,6.029,4330,1995,194.837,59.586,13.290
2019-06-15T02:06:33,42.805,6.029,4330,1995,194.838,59.586,13.289
2019-06-15T02:09:33,42.805,6.029,4330,1995,194.796,59.573,13.290
2019-06-15T02:12:33,42.805,6.029,4330,1995,194.761,59.563,13.290
2019-06-15T02:15:33,42.805,6.029,4330,1995,194.828,59.583,13.290
2019-06-15T02:18:33,42.805,6.029,4330,1995,194.803,59.576,13.290
2019-06-15T02:21:33,42.805,6.029,4330,1995,194.758,59.561,13.289
2019-06-15T02:24:33,42.805,6.029,4330,1995,194.798,59.574,13.289
2019-06-15T02:27:33,42.805,6.029,4330,1995,194.853,59.590,13.289
2019-06-15T02:30:33,42.805,6.029,4330,1995,194.835,59.585,13.289
2019-06-15T02:33:33,42.805,6.029,4330,1995,194.842,59.587,13.289
2019-06-15T02:36:33,42.805,6.029,4330,1995,194.836,59.584,13.289
2019-06-15T02:39:33,42.805,6.029,4330,1995,194.774,59.567,13.290
2019-06-15T02:42:33,42.805,6.029,4330,1995,194.753,59.559,13.289
2019-06-15T02:45:33,42.805,6.029,4330,1995,194.815,59.578,13.289
2019-06-15T02:48:33,42.805,6.029,4330,1995,194.799,59.573,13.288
2019-06-15T02:51:33,42.805,6.029,4330,1995,194.769,59.564,13.289
2019-06-15T02:54:33,42.805,6.029,4330,1995,194.757,59.560,13.288
2019-06-15T02:57:33,42.805,6.029,4330,1995,194.780,59.567,13.289
2019-06-15T03:00:33,42.805,6.029,4330,1995,194.794,59.571,13.288
2019-06-15T03:03:33,42.805,6.029,4330,1995,194.798,59.573,13.289
2019-06-15T03:06:33,42.805,6.029,4330,1995,194.783,59.568,13.288
2019-06-15T03:09:33,42.805,6.029,4330,1995,194.788,59.569,13.288
2019-06-15T03:12:33,42.805,6.029,4330,1995,194.754,59.559,13.288
2019-06-15T03:15:33,42.805,6.029,4330,1995,194.784,59.569,13.289
2019-06-15T03:18:33,42.805,6.029,4330,1995,194.733,59.553,13.288
2019-06-15T03:21:33,42.805,6.029,4330,1995,194.764,59.562,13.289
2019-06-15T03:24:33,42.805,6.029,4330,1995,194.801,59.574,13.289
2019-06-15T03:27:33,42.805,6.029,4330,1995,194.787,59.569,13.289
2019-06-15T03:30:33,42.805,6.029,4330,1995,194.748,59.558,13.289
2019-06-15T03:33:33,42.805,6.029,4330,1995,194.802,59.574,13.289
2019-06-15T03:36:33,42.805,6.029,4330,1995,194.726,59.551,13.289
2019-06-15T03:39:33,42.805,6.029,4330,1995,194.791,59.572,13.289
2019-06-15T03:42:33,42.805,6.029,4330,1995,194.791,59.572,13.289
2019-06-15T03:45:33,42.805,6.029,4330,1995,194.775,59.566,13.289
2019-06-15T03:48:33,42.805,6.029,4330,1995,194.779,59.568,13.289
2019-06-15T03:51:33,42.805,6.029,4330,1995,194.806,59.577,13.290
2019-06-15T03:54:33,42.805,6.029,4330,1995,194.771,59.565,13.289
2019-06-15T03:57:33,42.805,6.029,4330,1995,194.758,59.562,13.289
2019-06-15T04:00:33,42.805,6.029,4330,1995,194.740,59.557,13.290
2019-06-15T04:03:33,42.805,6.029,4330,1995,194.746,59.559,13.290
2019-06-15T04:06:33,42.805,6.029,4330,1995,194.813,59.579,13.290
2019-06-15T04:09:33,42.805,6.029,4330,1995,194.827,59.583,13.290
2019-06-15T04:12:33,42.805,6.029,4330,1995,194.783,59.570,13.290
2019-06-15T04:15:33,42.805,6.029,4330,1995,194.775,59.567,13.289
2019-06-15T04:18:33,42.805,6.029,4330,1995,194.759,59.562,13.290
2019-06-15T04:21:33,42.805,6.029,4330,1995,194.852,59.591,13.290
2019-06-15T04:24:33,42.805,6.029,4330,1995,194.765,59.563,13.289
2019-06-15T04:27:33,42.805,6.029,4330,1995,194.829,59.585,13.290
2019-06-15T04:30:33,42.805,6.029,4330,1995,194.784,59.570,13.290
2019-06-15T04:33:33,42.805,6.029,4330,1995,194.834,59.585,13.290
2019-06-15T04:36:33,42.805,6.029,4330,1995,194.869,59.596,13.290
2019-06-15T04:39:33,42.805,6.029,4330,1995,194.769,59.565,13.290
2019-06-15T04:42:33,42.805,6.029,4330,1995,194.792,59.572,13.289
2019-06-15T04:45:33,42.805,6.029,4330,1995,194.824,59.583,13.290
2019-06-15T04:48:33,42.805,6.029,4330,1995,194.789,59.571,13.290
2019-06-15T04:51:33,42.805,6.029,4330,1995,194.745,59.557,13.289
2019-06-15T04:54:33,42.805,6.029,4330,1995,194.761,59.564,13.290
2019-06-15T04:57:33,42.805,6.029,4330,1995,194.731,59.552,13.289
2019-06-15T05:00:33,42.805,6.029,4330,1995,194.763,59.563,13.289
2019-06-15T05:03:33,42.805,6.029,4330,1995,194.787,59.570,13.289
2019-06-15T05:06:33,42.805,6.029,4330,1995,194.757,59.561,13.289
2019-06-15T05:09:33,42.805,6.029,4330,1995,194.804,59.575,13.289
2019-06-15T05:12:33,42.805,6.029,4330,1995,194.771,59.565,13.289
2019-06-15T05:15:33,42.805,6.029,4330,1995,194.746,59.557,13.289
2019-06-15T05:18:33,42.805,6.029,4330,1995,194.816,59.579,13.289
2019-06-15T05:21:33,42.805,6.029,4330,1995,194.792,59.571,13.289
2019-06-15T05:24:33,42.805,6.029,4330,1995,194.755,59.560,13.289
2019-06-15T05:27:33,42.805,6.029,4330,1995,194.823,59.580,13.289
2019-06-15T05:30:33,42.805,6.029,4330,1995,194.780,59.567,13.289
2019-06-15T05:33:33,42.805,6.029,4330,1995,194.788,59.569,13.288
2019-06-15T05:36:33,42.805,6.029,4330,1995,194.845,59.587,13.289
2019-06-15T05:39:33,42.805,6.029,4330,1995,194.835,59.584,13.289
2019-06-15T05:42:33,42.805,6.029,4330,1995,194.827,59.582,13.289
2019-06-15T05:45:33,42.805,6.029,4330,1995,194.800,59.573,13.288
2019-06-15T05:48:33,42.805,6.029,4330,1995,194.893,59.602,13.289
2019-06-15T05:51:33,42.805,6.029,4330,1995,194.833,59.583,13.289
2019-06-15T05:54:33,42.805,6.029,4330,1995,194.844,59.587,13.289
2019-06-15T05:57:33,42.805,6.029,4330,1995,194.888,59.601,13.289
2019-06-15T06:00:33,42.805,6.029,4330,1995,194.776,59.566,13.289
2019-06-15T06:03:33,42.805,6.029,4330,1995,194.823,59.581,13.289
2019-06-15T06:06:33,42.805,6.029,4330,1995,194.719,59.549,13.289
2019-06-15T06:09:33,42.805,6.029,4330,1995,194.786,59.570,13.289
2019-06-15T06:12:33,42.805,6.029,4330,1995,194.673,59.536,13.290
2019-06-15T06:15:33,42.805,6.029,4330,1995,194.762,59.563,13.289
2019-06-15T06:18:33,42.805,6.029,4330,1995,194.799,59.574,13.289
2019-06-15T06:21:33,42.805,6.029,4330,1995,194.758,59.562,13.290
2019-06-15T06:24:33,42.805,6.029,4330,1995,194.705,59.546,13.290
2019-06-15T06:27:33,42.805,6.029,4330,1995,194.797,59.573,13.289
2019-06-15T06:30:33,42.805,6.029,4330,1995,194.765,59.565,13.290
2019-06-15T06:33:33,42.805,6.029,4330,1995,194.757,59.562,13.290
2019-06-15T06:36:33,42.805,6.029,4330,1995,194.765,59.565,13.290
2019-06-15T06:39:33,42.805,6.029,4330,1995,194.741,59.557,13.290
2019-06-15T06:42:33,42.805,6.029,4330,1995,194.801,59.574,13.289
2019-06-15T06:45:33,42.805,6.029,4330,1995,194.766,59.566,13.291
2019-06-15T06:48:33,42.805,6.029,4330,1995,194.813,59.578,13.289
2019-06-15T06:51:33,42.805,6.029,4330,1995,194.723,59.553,13.291
2019-06-15T06:54:33,42.805,6.029,4330,1995,194.756,59.562,13.290
2019-06-15T06:57:33,42.805,6.029,4330,1995,194.726,59.553,13.290
2019-06-15T07:00:33,42.805,6.029,4330,1995,194.821,59.582,13.291
2019-06-15T07:03:33,42.805,6.029,4330,1995,194.768,59.565,13.290
2019-06-15T07:06:33,42.805,6.029,4330,1995,194.793,59.573,13.290
2019-06-15T07:09:33,42.805,6.029,4330,1995,194.806,59.577,13.290
2019-06-15T07:12:33,42.805,6.029,4330,1995,194.769,59.565,13.290
2019-06-15T07:15:33,42.805,6.029,4330,1995,194.780,59.568,13.289
2019-06-15T07:18:33,42.805,6.029,4330,1995,194.780,59.569,13.290
2019-06-15T07:21:33,42.805,6.029,4330,1995,194.756,59.562,13.290
2019-06-15T07:24:33,42.805,6.029,4330,1995,194.779,59.568,13.290
2019-06-15T07:27:33,42.805,6.029,4330,1995,194.776,59.569,13.291
2019-06-15T07:30:33,42.805,6.029,4330,1995,194.735,59.555,13.290
2019-06-15T07:33:33,42.805,6.029,4330,1995,194.734,59.554,13.290
2019-06-15T07:36:33,42.805,6.029,4330,1995,194.754,59.560,13.289
2019-06-15T07:39:33,42.805,6.029,4330,1995,194.822,59.581,13.289
2019-06-15T07:42:33,42.805,6.029,4330,1995,194.737,59.555,13.289
2019-06-15T07:45:33,42.805,6.029,4330,1995,194.805,59.576,13.289
2019-06-15T07:48:33,42.805,6.029,4330,1995,194.689,59.540,13.289
2019-06-15T07:51:33,42.805,6.029,4330,1995,194.715,59.548,13.289
2019-06-15T07:54:33,42.805,6.029,4330,1995,194.668,59.533,13.289
2019-06-15T07:57:33,42.805,6.029,4330,1995,194.729,59.552,13.289
2019-06-15T08:00:33,42.805,6.029,4330,1995,194.752,59.559,13.289
2019-06-15T08:03:33,42.805,6.029,4330,1995,194.749,59.558,13.289
2019-06-15T08:06:33,42.805,6.029,4330,1995,194.765,59.564,13.289
2019-06-15T08:09:33,42.805,6.029,4330,1995,194.741,59.556,13.289
2019-06-15T08:12:33,42.805,6.029,4330,1995,194.728,59.552,13.289
2019-06-15T08:15:33,42.805,6.029,4330,1995,194.718,59.549,13.289
2019-06-15T08:18:33,42.805,6.029,4330,1995,194.688,59.541,13.290
2019-06-15T08:21:33,42.805,6.029,4330,1995,194.774,59.566,13.289
2019-06-15T08:24:33,42.805,6.029,4330,1995,194.759,59.562,13.290
2019-06-15T08:27:33,42.805,6.029,4330,1995,194.722,59.550,13.289
2019-06-15T08:30:33,42.805,6.029,4330,1995,194.688,59.541,13.290
2019-06-15T08:33:33,42.805,6.029,4330,1995,194.756,59.560,13.289
2019-06-15T08:36:33,42.805,6.029,4330,1995,194.730,59.555,13.291
2019-06-15T08:39:33,42.805,6.029,4330,1995,194.731,59.555,13.291
2019-06-15T08:42:33,42.805,6.029,4330,1995,194.714,59.548,13.290
2019-06-15T08:45:33,42.805,6.029,4330,1995,194.727,59.553,13.290
2019-06-15T08:48:33,42.805,6.029,4330,1995,194.737,59.556,13.290
2019-06-15T08:51:33,42.805,6.029,4330,1995,194.767,59.565,13.290
2019-06-15T08:54:33,42.805,6.029,4330,1995,194.739,59.557,13.290
2019-06-15T08:57:33,42.805,6.029,4330,1995,194.713,59.549,13.290
2019-06-15T09:00:33,42.805,6.029,4330,1995,194.734,59.556,13.291
2019-06-15T09:03:33,42.805,6.029,4330,1995,194.713,59.550,13.291
2019-06-15T09:06:33,42.805,6.029,4330,1995,194.718,59.550,13.290
2019-06-15T09:09:33,42.805,6.029,4330,1995,194.675,59.538,13.291
2019-06-15T09:12:33,42.805,6.029,4330,1995,194.684,59.539,13.290
2019-06-15T09:15:33,42.805,6.029,4330,1995,194.653,59.532,13.291
2019-06-15T09:18:33,42.805,6.029,4330,1995,194.684,59.540,13.290
2019-06-15T09:21:33,42.805,6.029,4330,1995,194.724,59.552,13.290
2019-06-15T09:24:33,42.805,6.029,4330,1995,194.594,59.515,13.292
2019-06-15T09:27:33,42.805,6.029,4330,1995,194.616,59.520,13.291
2019-06-15T09:30:33,42.805,6.029,4330,1995,194.579,59.511,13.293
2019-06-15T09:33:33,42.805,6.029,4330,1995,194.628,59.524,13.291
2019-06-15T09:36:33,42.805,6.029,4330,1995,194.596,59.516,13.292
2019-06-15T09:39:33,42.805,6.029,4330,1995,194.532,59.494,13.291
2019-06-15T09:42:33,42.805,6.029,4330,1995,194.623,59.524,13.292
2019-06-15T09:45:33,42.805,6.029,4330,1995,194.579,59.509,13.291
2019-06-15T09:48:33,42.805,6.029,4330,1995,194.513,59.490,13.292
2019-06-15T09:51:33,42.805,6.029,4330,1995,194.623,59.521,13.290
2019-06-15T09:54:33,42.805,6.029,4330,1995,194.610,59.517,13.290
2019-06-15T09:57:33,42.805,6.029,4330,1995,194.596,59.513,13.290
2019-06-15T10:00:33,42.805,6.029,4330,1995,194.543,59.496,13.290
2019-06-15T10:03:33,42.805,6.029,4330,1995,194.543,59.498,13.291
2019-06-15T10:06:33,42.805,6.029,4330,1995,194.552,59.500,13.290
2019-06-15T10:09:33,42.805,6.029,4330,1995,194.620,59.519,13.289
2019-06-15T10:12:33,42.805,6.029,4330,1995,194.622,59.520,13.289
2019-06-15T10:15:33,42.805,6.029,4330,1995,194.583,59.508,13.289
2019-06-15T10:18:33,42.805,6.029,4330,1995,194.582,59.508,13.289
2019-06-15T10:21:33,42.805,6.029,4330,1995,194.592,59.510,13.289
2019-06-15T10:24:33,42.805,6.029,4330,1995,194.553,59.498,13.289
2019-06-15T10:27:33,42.805,6.029,4330,1995,194.535,59.494,13.289
2019-06-15T10:30:33,42.805,6.029,4330,1995,194.577,59.506,13.289
2019-06-15T10:33:33,42.805,6.029,4330,1995,194.551,59.497,13.289
2019-06-15T10:36:33,42.805,6.029,4330,1995,194.624,59.520,13.289
2019-06-15T10:39:33,42.805,6.029,4330,1995,194.588,59.509,13.289
2019-06-15T10:42:33,42.805,6.029,4330,1995,194.613,59.517,13.289
2019-06-15T10:45:33,42.805,6.029,4330,1995,194.547,59.496,13.289
2019-06-15T10:48:33,42.805,6.029,4330,1995,194.572,59.505,13.290
2019-06-15T10:51:33,42.805,6.029,4330,1995,194.506,59.485,13.290
2019-06-15T10:54:33,42.805,6.029,4330,1995,194.530,59.492,13.290
2019-06-15T10:57:33,42.805,6.029,4330,1995,194.517,59.488,13.290
2019-06-15T11:00:33,42.805,6.029,4330,1995,194.496,59.481,13.289
2019-06-15T11:03:33,42.805,6.029,4330,1995,194.500,59.484,13.290
2019-06-15T11:06:33,42.805,6.029,4330,1995,194.561,59.501,13.290
2019-06-15T11:09:33,42.805,6.029,4330,1995,194.585,59.510,13.290
2019-06-15T11:12:33,42.805,6.029,4330,1995,194.575,59.506,13.290
2019-06-15T11:15:33,42.805,6.029,4330,1995,194.601,59.514,13.290
2019-06-15T11:18:33,42.805,6.029,4330,1995,194.555,59.500,13.290
2019-06-15T11:21:33,42.805,6.029,4330,1995,194.603,59.516,13.291
2019-06-15T11:24:33,42.805,6.029,4330,1995,194.608,59.516,13.290
2019-06-15T11:27:33,42.805,6.029,4330,1995,194.676,59.539,13.291
2019-06-15T11:30:33,42.805,6.029,4330,1995,194.634,59.526,13.291
2019-06-15T11:33:33,42.805,6.029,4330,1995,194.590,59.513,13.292
2019-06-15T11:36:33,42.805,6.029,4330,1995,194.664,59.533,13.290
2019-06-15T11:39:33,42.805,6.029,4330,1995,194.602,59.516,13.291
2019-06-15T11:42:33,42.805,6.029,4330,1995,194.564,59.504,13.291
2019-06-15T11:45:33,42.805,6.029,4330,1995,194.636,59.526,13.291
2019-06-15T11:48:33,42.805,6.029,4330,1995,194.640,59.527,13.291
2019-06-15T11:51:33,42.805,6.029,4330,1995,194.570,59.506,13.291
2019-06-15T11:54:33,42.805,6.029,4330,1995,194.579,59.508,13.291
2019-06-15T11:57:33,42.805,6.029,4330,1995,194.597,59.514,13.290
2019-06-15T12:00:33,42.805,6.029,4330,1995,194.577,59.509,13.291
2019-06-15T12:03:33,42.805,6.029,4330,1995,194.612,59.519,13.291
2019-06-15T12:06:33,42.805,6.029,4330,1995,194.579,59.509,13.291
2019-06-15T12:09:33,42.805,6.029,4330,1995,194.624,59.522,13.290
2019-06-15T12:12:33,42.805,6.029,4330,1995,194.707,59.546,13.290
2019-06-15T12:15:33,42.805,6.029,4330,1995,194.657,59.532,13.290
2019-06-15T12:18:33,42.805,6.029,4330,1995,194.641,59.527,13.290
2019-06-15T12:21:33,42.805,6.029,4330,1995,194.672,59.536,13.290
2019-06-15T12:24:33,42.805,6.029,4330,1995,194.628,59.523,13.290
2019-06-15T12:27:33,42.805,6.029,4330,1995,194.665,59.534,13.290
2019-06-15T12:30:33,42.805,6.029,4330,1995,194.673,59.536,13.290
2019-06-15T12:33:33,42.805,6.029,4330,1995,194.710,59.549,13.291
2019-06-15T12:36:33,42.805,6.029,4330,1995,194.719,59.550,13.290
2019-06-15T12:39:33,42.805,6.029,4330,1995,194.680,59.537,13.289
2019-06-15T12:42:33,42.805,6.029,4330,1995,194.683,59.539,13.289
2019-06-15T12:45:33,42.805,6.029,4330,1995,194.635,59.524,13.289
2019-06-15T12:48:33,42.805,6.029,4330,1995,194.666,59.533,13.289
2019-06-15T12:51:33,42.805,6.029,4330,1995,194.659,59.531,13.289
2019-06-15T12:54:33,42.805,6.029,4330,1995,194.679,59.537,13.289
2019-06-15T12:57:33,42.805,6.029,4330,1995,194.745,59.558,13.289
2019-06-15T13:00:33,42.805,6.029,4330,1995,194.719,59.550,13.290
2019-06-15T13:03:33,42.805,6.029,4330,1995,194.731,59.553,13.289
2019-06-15T13:06:33,42.805,6.029,4330,1995,194.729,59.552,13.289
2019-06-15T13:09:33,42.805,6.029,4330,1995,194.684,59.539,13.289
2019-06-15T13:12:33,42.805,6.029,4330,1995,194.681,59.537,13.289
2019-06-15T13:15:33,42.805,6.029,4330,1995,194.714,59.548,13.289
2019-06-15T13:18:33,42.805,6.029,4330,1995,194.679,59.536,13.289
2019-06-15T13:21:33,42.805,6.029,4330,1995,194.737,59.555,13.289
2019-06-15T13:24:33,42.805,6.029,4330,1995,194.744,59.557,13.289
2019-06-15T13:27:33,42.805,6.029,4330,1995,194.764,59.562,13.289
2019-06-15T13:30:33,42.805,6.029,4330,1995,194.745,59.557,13.289
2019-06-15T13:33:33,42.805,6.029,4330,1995,194.750,59.559,13.290
2019-06-15T13:36:33,42.805,6.029,4330,1995,194.813,59.577,13.289
2019-06-15T13:39:33,42.805,6.029,4330,1995,194.791,59.572,13.289
2019-06-15T13:42:33,42.805,6.029,4330,1995,194.799,59.574,13.289
2019-06-15T13:45:33,42.805,6.029,4330,1995,194.740,59.556,13.289
2019-06-15T13:48:33,42.805,6.029,4330,1995,194.741,59.557,13.290
2019-06-15T13:51:33,42.805,6.029,4330,1995,194.752,59.561,13.290
2019-06-15T13:54:33,42.805,6.029,4330,1995,194.726,59.552,13.289
2019-06-15T13:57:33,42.805,6.029,4330,1995,194.735,59.555,13.290
2019-06-15T14:00:33,42.805,6.029,4330,1995,194.779,59.569,13.290
2019-06-15T14:03:33,42.805,6.029,4330,1995,194.777,59.567,13.289
2019-06-15T14:06:33,42.805,6.029,4330,1995,194.803,59.576,13.290
2019-06-15T14:09:33,42.805,6.029,4330,1995,194.811,59.578,13.289
2019-06-15T14:12:33,42.805,6.029,4330,1995,194.766,59.566,13.291
2019-06-15T14:15:33,42.805,6.029,4330,1995,194.726,59.553,13.290
2019-06-15T14:18:33,42.805,6.029,4330,1995,194.769,59.567,13.291
2019-06-15T14:21:33,42.805,6.029,4330,1995,194.805,59.577,13.290
2019-06-15T14:24:33,42.805,6.029,4330,1995,194.770,59.567,13.291
2019-06-15T14:27:33,42.805,6.029,4330,1995,194.741,59.557,13.290
2019-06-15T14:30:33,42.805,6.029,4330,1995,194.781,59.569,13.290
2019-06-15T14:33:33,42.805,6.029,4330,1995,194.754,59.561,13.290
2019-06-15T14:36:33,42.805,6.029,4330,1995,194.683,59.541,13.291
2019-06-15T14:39:33,42.805,6.029,4330,1995,194.742,59.558,13.291
2019-06-15T14:42:33,42.805,6.029,4330,1995,194.802,59.576,13.290
2019-06-15T14:45:33,42.805,6.029,4330,1995,194.793,59.574,13.291
2019-06-15T14:48:33,42.805,6.029,4330,1995,194.839,59.586,13.289
2019-06-15T14:51:33,42.805,6.029,4330,1995,194.738,59.555,13.289
2019-06-15T14:54:33,42.805,6.029,4330,1995,194.759,59.563,13.290
2019-06-15T14:57:33,42.805,6.029,4330,1995,194.837,59.587,13.290
2019-06-15T15:00:33,42.805,6.029,4330,1995,194.780,59.568,13.289
2019-06-15T15:03:33,42.805,6.029,4330,1995,194.778,59.567,13.289
2019-06-15T15:06:33,42.805,6.029,4330,1995,194.743,59.559,13.291
2019-06-15T15:09:33,42.805,6.029,4330,1995,194.766,59.564,13.289
2019-06-15T15:12:33,42.805,6.029,4330,1995,194.761,59.562,13.289
2019-06-15T15:15:33,42.805,6.029,4330,1995,194.820,59.580,13.289
2019-06-15T15:18:33,42.805,6.029,4330,1995,194.743,59.557,13.289
2019-06-15T15:21:33,42.805,6.029,4330,1995,194.758,59.560,13.288
2019-06-15T15:24:33,42.805,6.029,4330,1995,194.766,59.563,13.289
2019-06-15T15:27:33,42.805,6.029,4330,1995,194.749,59.557,13.288
2019-06-15T15:30:33,42.805,6.029,4330,1995,194.783,59.569,13.289
2019-06-15T15:33:33,42.805,6.029,4330,1995,194.758,59.561,13.289
2019-06-15T15:36:33,42.805,6.029,4330,1995,194.743,59.556,13.288
2019-06-15T15:39:33,42.805,6.029,4330,1995,194.765,59.563,13.289
2019-06-15T15:42:33,42.805,6.029,4330,1995,194.761,59.562,13.289
2019-06-15T15:45:33,42.805,6.029,4330,1995,194.767,59.563,13.289
2019-06-15T15:48:33,42.805,6.029,4330,1995,194.778,59.566,13.289
2019-06-15T15:51:33,42.805,6.029,4330,1995,194.787,59.570,13.289
2019-06-15T15:54:33,42.805,6.029,4330,1995,194.768,59.564,13.289
2019-06-15T15:57:33,42.805,6.029,4330,1995,194.746,59.558,13.289
2019-06-15T16:00:33,42.805,6.029,4330,1995,194.750,59.559,13.289
2019-06-15T16:03:33,42.805,6.029,4330,1995,194.747,59.558,13.289
2019-06-15T16:06:33,42.805,6.029,4330,1995,194.768,59.563,13.289
2019-06-15T16:09:33,42.805,6.029,4330,1995,194.781,59.569,13.290
2019-06-15T16:12:33,42.805,6.029,4330,1995,194.748,59.558,13.289
2019-06-15T16:15:33,42.805,6.029,4330,1995,194.782,59.569,13.289
2019-06-15T16:18:33,42.805,6.029,4330,1995,194.761,59.564,13.291
2019-06-15T16:21:33,42.805,6.029,4330,1995,194.767,59.563,13.289
2019-06-15T16:24:33,42.805,6.029,4330,1995,194.731,59.553,13.289
2019-06-15T16:27:33,42.805,6.029,4330,1995,194.837,59.586,13.289
2019-06-15T16:30:33,42.805,6.029,4330,1995,194.793,59.573,13.290
2019-06-15T16:33:33,42.805,6.029,4330,1995,194.782,59.568,13.289
2019-06-15T16:36:33,42.805,6.029,4330,1995,194.799,59.574,13.289
2019-06-15T16:39:33,42.805,6.029,4330,1995,194.816,59.580,13.290
2019-06-15T16:42:33,42.805,6.029,4330,1995,194.781,59.569,13.289
2019-06-15T16:45:33,42.805,6.029,4330,1995,194.839,59.587,13.290
2019-06-15T16:48:33,42.805,6.029,4330,1995,194.800,59.576,13.291
2019-06-15T16:51:33,42.805,6.029,4330,1995,194.747,59.559,13.290
2019-06-15T16:54:33,42.805,6.029,4330,1995,194.817,59.581,13.291
2019-06-15T16:57:33,42.805,6.029,4330,1995,194.780,59.569,13.290
2019-06-15T17:00:33,42.805,6.029,4330,1995,194.757,59.562,13.290
2019-06-15T17:03:33,42.805,6.029,4330,1995,194.777,59.567,13.289
2019-06-15T17:06:33,42.805,6.029,4330,1995,194.840,59.588,13.290
2019-06-15T17:09:33,42.805,6.029,4330,1995,194.773,59.566,13.290
2019-06-15T17:12:33,42.805,6.029,4330,1995,194.742,59.558,13.290
2019-06-15T17:15:33,42.805,6.029,4330,1995,194.769,59.565,13.290
2019-06-15T17:18:33,42.805,6.029,4330,1995,194.748,59.559,13.290
2019-06-15T17:21:33,42.805,6.029,4330,1995,194.807,59.576,13.289
2019-06-15T17:24:33,42.805,6.029,4330,1995,194.811,59.578,13.289
2019-06-15T17:27:32,42.805,6.029,4330,1995,194.745,59.558,13.290
2019-06-15T17:30:32,42.805,6.029,4330,1995,194.758,59.561,13.289
2019-06-15T17:33:32,42.805,6.029,4330,1995,194.786,59.570,13.289
2019-06-15T17:36:32,42.805,6.029,4330,1995,194.782,59.568,13.289
2019-06-15T17:39:32,42.805,6.029,4330,1995,194.805,59.576,13.289
2019-06-15T17:42:32,42.805,6.029,4330,1995,194.769,59.565,13.289
2019-06-15T17:45:32,42.805,6.029,4330,1995,194.749,59.558,13.289
2019-06-15T17:48:32,42.805,6.029,4330,1995,194.718,59.549,13.289
2019-06-15T17:51:32,42.805,6.029,4330,1995,194.799,59.573,13.288
2019-06-15T17:54:32,42.805,6.029,4330,1995,194.806,59.575,13.289
2019-06-15T17:57:32,42.805,6.029,4330,1995,194.819,59.580,13.289
2019-06-15T18:00:32,42.805,6.029,4330,1995,194.824,59.581,13.289
2019-06-15T18:03:32,42.805,6.029,4330,1995,194.833,59.583,13.289
2019-06-15T18:06:32,42.805,6.029,4330,1995,194.829,59.582,13.289